Regional Weather Roundup
Issued by NWS

Home | Current Version | Previous Version | Graphics & Text | Print | Product List | Glossary On
Versions: 1 2 3 4 5 6 7 8 9 10 11 12 13 14 15 16 17 18 19 20 21 22 23 24 25 26 27 28 29 30 31 32 33 34 35 36 37 38 39 40 41 42 43 44 45 46 47 48 49 50
000
ASUS43 KLMK 251310
RWRKY
KENTUCKY REGIONAL WEATHER ROUNDUP
NATIONAL WEATHER SERVICE LOUISVILLE KY
800 AM EST SAT FEB 25 2017

NOTE "FAIR" INDICATES FEW OR NO CLOUDS BELOW 12,000 FEET
WITH NO SIGNIFICANT WEATHER AND/OR OBSTRUCTIONS TO VISIBILITY.

KYZ001>023-026-027-061>063-070>075-251400-
WESTERN AND SOUTH CENTRAL KENTUCKY

CITY           SKY/WX    TMP DP  RH WIND       PRES   REMARKS
PADUCAH        CLOUDY    32  18  56 W10       30.00R WCI  24
HENDERSON      CLOUDY    32  19  59 W20       29.95R WCI  20
OWENSBORO      CLOUDY    33  20  58 NW25      29.94R WCI  20
HOPKINSVILLE   CLEAR     35  21  57 W17G23    29.95R WCI  24
BOWLING GREEN  CLOUDY    39  25  57 NW13G22   29.91R WCI  31
GLASGOW        PTCLDY    38  29  69 W13G22    29.88R WCI  30
$$

KYZ024-025-028>034-038-045-046-053-251400-
NORTH CENTRAL KENTUCKY

CITY           SKY/WX    TMP DP  RH WIND       PRES   REMARKS
LOUISVILLE/SDF MOCLDY    36  20  52 W24G31    29.85R WCI  24
LOUISVILLE/LOU CLOUDY    37  22  54 W20G29    29.85R WCI  27
FORT KNOX      CLOUDY    32  21  64 W17G26    29.85R WCI  21
$$

KYZ035>037-039>044-047>052-055>060-089>105-251400-
NORTHEAST KENTUCKY

CITY           SKY/WX    TMP DP  RH WIND       PRES   REMARKS
LEXINGTON      PTCLDY    41  29  62 W13       29.77R
COVINGTON      CLOUDY    37  26  64 W17G33    29.74R WCI  27
FRANKFORT      CLOUDY    41  27  57 W12G20    29.78R
$$

KYZ054-064>069-076>088-106>120-251400-
SOUTHEAST KENTUCKY

CITY           SKY/WX    TMP DP  RH WIND       PRES   REMARKS
JACKSON        CLOUDY    46  43  89 W12G21    29.74R
LONDON         PTCLDY    43  39  86 W15       29.79R
SOMERSET       MOCLDY    41  32  70 W8        29.83R
MIDDLESBORO    CLOUDY    49  41  74 W3        29.77R
MONTICELLO     PTSUNNY   42  35  76 W15       29.84R
$$





USA.gov is the U.S. government's official web portal to all federal, state and local government web resources and services.